Weather in Zinyaki

Russia / Nizhny Novgorod Oblast'     56°32′25″N   43°49′38″E
temp.,
°C
wind,
m/s
gust,
m/s
humid.,
%
clouds,
%
prec.,
mm/h
press.,
hPa
HPBL,
m
16 september, thu
thu1600:00+8wnw4689100 0.4 1009286
03:00+8nnw4886100 0.8 1010374
06:00+5nnw378023 0.0 1012330
09:00+7nnw5774100 0.0 1014697
12:00+10nnw6756100 0.0 10151606
15:00+10nnw6751100 0.1 10161585
18:00+9nw5751100 0.0 1016561
21:00+8nw4760100 0.0 1016389
17 september, fri
fri1700:00+7wnw3667100 0.0 1017278
03:00+6wnw3675100 0.2 1017200
06:00+6wnw3575100 0.2 1017174
09:00+8nnw4563100 0.4 10171074
12:00+10nnw554599 0.1 10171917
15:00+9nnw4546100 0.1 10181549
18:00+7nw355792 0.0 1018134
21:00+5nnw367541 0.1 1019128
18 september, sat
sat1800:00+2nnw38895 0.0 1020173
03:00+5nnw3883100 0.0 1021417
06:00+5n3788100 0.0 1022323
09:00+6nne4681100 0.1 1023564
12:00+9n3557100 0.1 10241472
15:00+9n354631 0.1 10241467
18:00+6n355749 0.0 102585
21:00+3nne34705 0.0 102665
19 september, sun
sun1900:00+3n226994 0.0 102631
03:00+2ne348477 0.0 102794
06:000ne348679 0.0 102868
09:00+5ne2258100 0.0 1028534
12:00+9ne334599 0.0 10281241
15:00+10ne234191 0.0 10271346
18:00+7ne3355100 0.0 102736
21:00+5ene3665100 0.0 1027114
20 september, mon
mon2000:00+5ene4967100 0.0 1027227
03:00+4ene51072100 0.0 1027336
06:00+3ene61173100 0.0 1028435
09:00+5e71163100 0.0 1028561
12:00+7e7955100 0.0 1028838
15:00+8e7952100 0.0 10271065
18:00+6e61156100 0.0 1026819
21:00+6e61257100 0.0 1026750